    Observer details:
    104 San Marcello Pistoiese.  Observers P. Bacci, M. Maestripieri.  Measurers
        P. Bacci, L. Tesi, G. Fagioli.  0.60-m reflector + CCD.
    233 Sauro Donati Astronomical Observatory, San Vito.  Observers S. Donati, F.
        Biagini.  Measurer S. Donati.  0.30-m f/9 Schmidt-Cassegrain + CCD.
    246 Klet Observatory-KLENOT.  Observers M. Tichy, J. Ticha, M. Honkova.
        Measurer M. Tichy.  1.06-m f/2.7 reflector + 2048x2048 CCD.
    595 Farra d'Isonzo.  Observer E. Pettarin.  0.40-m f/5.15 reflector + CCD.
    703 Catalina Sky Survey.  Observer G. J. Leonard.  Measurers B. Gray, D.
        Rankin, F. C. Shelly.  0.68-m Schmidt + 10K CCD.
    734 Farpoint Observatory, Eskridge.  Observers G. Hug, D. Cromer, D. Goodin,
        R. Valentine.  Measurer D. Cromer.  0.7-m reflector + CCD.
    958 Observatoire de Dax.  Observer P. Dupouy.  0.32-m f/4.1 Schmidt-
        Cassegrain.
    B74 Santa Maria de Montmagastrell.  Observer J. M. Bosch.  0.40-m f/10
        Schmidt-Cassegrain + CCD.
    G17 BAS Observatory, Scandicci.  Observer L. Grazzini.  0.20-m f/10 Schmidt-
        Cassegrain + CCD + f/6.3 focal reducer.
    G34 Oberfrauendorf.  Observer T. Felber.  0.35-m f/6.3 Schmidt-Cassegrain +
        CCD.
    I93 St Pardon de Conques.  Observer F. Losse.  0.40-m f/3.7 reflector + CCD.
    J69 North Observatory, Clanfield.  Observer D. Briggs.  0.41-m f/4.5 Newtonian
        reflector + CCD.
    J95 Great Shefford.  Observer P. Birtwhistle.  0.41-m f/6.3 Schmidt-Cassegrain
        + CCD.
    K61 Rokycany Observatory.  Observer M. Adamovsky.  0.51-m f/6.8 reflector +
        CCD.
    K63 G. Pascoli Observatory, Castelvecchio Pascoli.  Observer R. Bacci.  0.41-m
        f/3.2 Newtonian reflector + CCD.
    K74 Muensterschwarzach Observatory, Schwarzach.  Observer C. Gerhard.  0.30-m
        f/3.75 Newtonian reflector + CCD.
    L01 Visnjan Observatory, Tican.  Observers K. Korlevic, D. Pujagic, V. Dobos.
        Measurers D. Pujagic, K. Korlevic.  1.0-m f/2.9 reflector + CCD.
    L18 QOS Observatory, Zalistci.  Observers Y. V. Shevchuk, O. V. Kravchenko.
        Measurer A. M. Kozhukhov.  0.50-m f/3.8 reflector + CCD.
    N82 Multa Observatory.  Observer L. Elenin.  0.4-m f/1.25 reflector + CCD.
    T08 ATLAS-MLO, Mauna Loa.  Observers L. Denneau, J. Tonry, A. Heinze, H.
        Weiland.  Measurers L. Denneau, J. Tonry, A. Heinze, H. Weiland, A.
        Fitzsimmons, J. Robinson, N. Erasmus.  0.5-m reflector + CCD.
    X31 Galileo Galilei Observatory, Oro Verde.  Observer C. Fornari.  0.40-m f/8
        Ritchey-Chretien + CCD.
    Y00 SONEAR Observatory, Oliveira.  Observers C. Jacques, E. Pimentel, J.
        Barros.  Measurer C. Jacques.  0.28-m f/2.2 astrograph + CCD.
    
    Orbital elements:
    2021 GD1                                                 Earth MOID = 0.0246 AU
    Epoch 2020 Dec. 17.0 TT = JDT 2459200.5                 Veres                   
    M 298.09382              (2000.0)            P               Q                  
    n   0.38749292     Peri.   70.33316     -0.10959332     +0.98449529             
    a   1.8633461      Node   195.43158     -0.98898257     -0.09420751             
    e   0.5798954      Incl.   30.97887     +0.09951275     +0.14796611             
    P   2.54           H   22.37          G   0.15           U   8                  
    Residuals in seconds of arc
    210401 703  0.0+  0.7-    210403 104  0.4+  0.3+    210404 L18  0.2+  0.2+
    210401 703  0.9-  0.6+    210403 104  0.6+  0.2-    210404 L18  0.5+  0.3-
    210403 T08  0.0+  0.1-    210403 104  0.1-  0.7-    210404 L18  0.2-  0.5+
    210403 T08  0.4+  0.1-    210403 X31  0.2+  0.8+    210404 L18  0.3+  0.4+
    210403 T08  0.1+  0.0+    210403 X31  0.2+  0.0-    210404 K74  0.0+  0.1-
    210403 T08  0.1+  0.1+    210403 X31  0.3-  0.3+    210404 K74  0.2+  0.2-
    210403 N82  0.3-  0.6+    210403 Y00  0.7+  0.9-    210404 K74  0.1+  0.1+
    210403 N82  0.5-  0.0-    210403 Y00  1.1+  0.7-    210404 G34  0.2-  0.1-
    210403 N82  0.9-  0.5+    210403 Y00  0.5+  0.7+    210404 G34  0.1-  0.2+
    210403 L01  0.1-  0.2-    210404 734  0.1+  0.1+    210404 K74  0.1-  0.3+
    210403 L01  0.7-  0.5-    210404 734  0.1-  0.9+    210404 G34  0.3-  1.0-
    210403 L01  0.4-  0.8-    210404 734  0.2-  0.3+    210404 G34  0.1+  0.2-
    210403 L01  0.1-  1.1-    210404 734 (0.5-  1.7+)   210404 J95  0.2-  0.0+
    210403 L01  0.1+  0.6-    210404 T08  0.1-  0.1-    210404 J95  0.2-  0.3-
    210403 595  0.0-  0.2+    210404 T08  0.1-  0.5+    210404 233  0.3-  0.1+
    210403 595  0.1+  0.3-    210404 T08  0.2-  0.4-    210404 J69  0.2+  0.0+
    210403 K63  0.4+  0.7+    210404 T08  0.2-  0.6-    210404 233  0.2+  0.6-
    210403 K63  0.4+  0.7+    210404 246  0.5+  0.4-    210404 J69  0.3+  0.1-
    210403 595  0.2+  0.4-    210404 246  0.1+  0.1+    210404 G17  0.3+  0.5+
    210403 958 (0.1-  1.3-)   210404 246  0.5+  0.7+    210404 B74  0.1+  0.6+
    210403 K63  0.4+  0.5-    210404 246  0.2+  0.7+    210404 233 (0.6+  0.5-)
    210403 K63  0.4+  0.5-    210404 246  0.3+  0.5+    210404 J69  0.4-  0.3+
    210403 595  0.6-  0.4+    210404 246  0.2+  0.2-    210404 B74  0.8+  1.4+
    210403 958 (0.5+  1.8-)   210404 K61  0.4+  0.5+    210404 G17  0.1-  0.1-
    210403 958 (0.2-  1.2-)   210404 K61  0.0+  0.4+    210404 B74 (1.2+  1.6+)
    210403 I93  0.5+  0.1+    210404 K61  0.1+  1.0+    210404 G17  0.2+  0.3-
    210403 I93  0.0+  0.3-    210404 K61  0.2+  1.0+    210404 J95  0.4-  0.2-
    210403 I93  0.1+  0.4-    210404 L18  0.1-  0.4+    210404 J95  0.1+  0.2-
    
    Ephemeris:
    2021 GD1                 a,e,i = 1.86, 0.58, 31                  q = 0.7828
    Date    TT    R. A. (2000) Decl.     Delta      r    Elong.  Phase     V
    2021 03 05    11 29 24.7 -43 49 08   0.4605  1.3336   129.6    34.9    22.8
    ...
    2021 03 20    11 14 47.3 -42 07 02   0.2617  1.1993   136.5    34.8    21.3
    ...
    2021 03 28    10 57 58.1 -36 20 09   0.1618  1.1280   140.8    34.0    20.1
    ...
    2021 04 03    10 33 09.9 -22 25 36   0.09283 1.0754   143.1    34.0    18.8
    2021 04 04    10 26 40.3 -17 50 21   0.08265 1.0668   142.4    34.9    18.5
    2021 04 05    10 18 59.3 -11 59 44   0.07324 1.0582   140.9    36.6    18.3
    ...
    2021 04 11    08 30 27.0 +53 23 47   0.05641 1.0076    94.0    82.8    19.0
    ...
    2021 04 19    01 54 11.8 +70 36 27   0.1326  0.9441    59.5   113.5    22.2
    ...
    2021 05 04    00 23 42.8 +59 23 42   0.3113  0.8451    50.5   113.0    23.8
    
    M. P. C. Staff               (C) Copyright 2021 MPC           M.P.E.C. 2021-G34
    


    Read MPEC 2021-G33 Read MPEC 2021-G35


    MPEC number:

    Enter an MPEC number in one of the following forms:

    • 1997-B01 (the full form)
    • J97B01 (the packed version of the full form)
    • B01 (the abbreviated form)